Hourly Data Report for May 19, 2022

WINNIPEG THE FORKS
MANITOBA
Current Station Operator: ECCC - MSC

49°53'18.008" N
97°07'46.007" W
230.00 m
5023262
71579
XWN

Download Data

Hourly Data (May 2022)
Hourly Data Report for May 19, 2022
TIME
LST
Temp Definition
°C
Dew Point Definition
°C
Rel Hum Definition
%
Precip. Amount Definition
mm

Wind Dir Definition
10's deg

Wind Spd Definition
km/h
Visibility Definition
km
Stn Press Definition
kPa
Hmdx Definition


Wind Chill Definition


Weather Definition


00:00 8.8 4.4 74 0.0 31 4   97.81     LegendNANA
01:00 8.1 2.9 70 0.0 33 5   97.72     LegendNANA
02:00 8.2 1.7 64 0.0 34 6   97.66     LegendNANA
03:00 7.3 1.3 66 0.0 36 4   97.60     LegendNANA
04:00 6.8 2.2 72 0.0 2 2   97.57     LegendNANA
05:00 6.9 2.0 71 0.0 9 2   97.53     LegendNANA
06:00 7.0 2.3 72 0.0 9 3   97.47     LegendNANA
07:00 7.0 2.8 75 0.0 9 4   97.40     LegendNANA
08:00 8.6 3.6 71 0.0 9 2   97.31     LegendNANA
09:00 10.7 5.4 70 0.0 0 1   97.25     LegendNANA
10:00 12.1 7.0 71 0.0 22 3   97.23     LegendNANA
11:00 14.4 6.1 57 0.0 10 4   97.11     LegendNANA
12:00 14.5 5.9 56 0.0 10 7   97.01     LegendNANA
13:00 15.0 5.7 54 0.0 9 7   96.91     LegendNANA
14:00 14.9 4.3 49 0.0 7 10   96.88     LegendNANA
15:00 14.2 5.5 56 0.1 8 7   96.76     LegendNANA
16:00 13.8 5.2 56 0.1 8 5   96.66     LegendNANA
17:00 11.7 6.8 72 0.6 23 2   96.69     LegendNANA
18:00 10.1 8.2 88 2.0 7 2   96.67     LegendNANA
19:00 9.8 8.3 90 1.7 7 4   96.61     LegendNANA
20:00 9.6 8.5 92 2.3 5 6   96.53     LegendNANA
21:00 9.4 8.3 93 1.5 4 7   96.49     LegendNANA
22:00 9.2 7.9 92 1.2 5 3   96.46     LegendNANA
23:00 8.9 7.7 92 2.3 1 6   96.40     LegendNANA

Notes on Data Quality.

Legend

  • E = Estimated
  • M = Missing
  • NA = Not Available*
  • [empty] = Indicates an unobserved value
Date modified: